CES5112 ZBAA-ZSSS

Flight info

Callsign CES5112
Flight time 1h 36m
Altitude 34100
Route ELKUR5Y ELKUR W40 YQG W142 DALIM A593 DPX A470 DALNU W166 ZJ W167 SASAN SAS71A
Aircraft A306/H-SDE3FGHIRWY/LB1

Departure

Time 2026-05-07 16:19
Airport Beijing Capital International Airport (ZBAA)

Arrival

Time 2026-05-07 17:56
Airport Shanghai Hongqiao International Airport (ZSSS)
Time Latitude Longitude Altitude Speed Heading
2026-05-07 15:47 40.07547 116.59174 100 ft 0 kts 315°
2026-05-07 16:02 40.07543 116.59180 130 ft 3 kts 314°
2026-05-07 16:02 40.07528 116.59199 130 ft 3 kts 316°
2026-05-07 16:02 40.07513 116.59217 130 ft 3 kts 317°
2026-05-07 16:02 40.07498 116.59235 130 ft 3 kts 314°
2026-05-07 16:03 40.07487 116.59253 130 ft 3 kts 302°
2026-05-07 16:03 40.07481 116.59268 130 ft 1 kts 277°
2026-05-07 16:03 40.07481 116.59278 130 ft 1 kts 240°
2026-05-07 16:03 40.07487 116.59288 130 ft 2 kts 210°
2026-05-07 16:04 40.07500 116.59294 131 ft 2 kts 189°
2026-05-07 16:04 40.07511 116.59296 129 ft 1 kts 182°
2026-05-07 16:04 40.07519 116.59296 129 ft 1 kts 178°
2026-05-07 16:04 40.07527 116.59295 128 ft 1 kts 175°
2026-05-07 16:05 40.07529 116.59295 128 ft 0 kts 175°
2026-05-07 16:05 40.07501 116.59298 131 ft 8 kts 175°
2026-05-07 16:05 40.07424 116.59312 125 ft 15 kts 163°
2026-05-07 16:06 40.07390 116.59392 125 ft 10 kts 68°
2026-05-07 16:06 40.07382 116.59489 126 ft 13 kts 150°
2026-05-07 16:06 40.07271 116.59511 126 ft 19 kts 174°
2026-05-07 16:06 40.07123 116.59533 125 ft 24 kts 172°
2026-05-07 16:07 40.06945 116.59563 127 ft 27 kts 173°
2026-05-07 16:07 40.06768 116.59591 127 ft 25 kts 173°
2026-05-07 16:07 40.06602 116.59618 125 ft 25 kts 173°
2026-05-07 16:07 40.06422 116.59644 125 ft 26 kts 174°
2026-05-07 16:08 40.06248 116.59668 127 ft 24 kts 174°
2026-05-07 16:08 40.06072 116.59701 127 ft 19 kts 170°
2026-05-07 16:08 40.06010 116.59717 125 ft 2 kts 168°
2026-05-07 16:08 40.05990 116.59723 126 ft 11 kts 166°
2026-05-07 16:09 40.05886 116.59728 125 ft 16 kts 179°
2026-05-07 16:09 40.05769 116.59746 127 ft 18 kts 172°
2026-05-07 16:09 40.05641 116.59766 127 ft 18 kts 171°
2026-05-07 16:09 40.05521 116.59788 127 ft 16 kts 173°
2026-05-07 16:10 40.05480 116.59861 127 ft 9 kts 66°
2026-05-07 16:10 40.05510 116.59924 127 ft 8 kts 49°
2026-05-07 16:10 40.05547 116.59963 125 ft 6 kts 34°
2026-05-07 16:10 40.05581 116.59993 126 ft 6 kts 34°
2026-05-07 16:11 40.05613 116.60007 126 ft 4 kts
2026-05-07 16:11 40.05638 116.60002 127 ft 3 kts 349°
2026-05-07 16:11 40.05643 116.60001 125 ft 0 kts 352°
2026-05-07 16:18 40.05667 116.59997 127 ft 10 kts 353°
2026-05-07 16:18 40.05872 116.59964 127 ft 59 kts 353°
2026-05-07 16:18 40.06486 116.59869 125 ft 117 kts 354°
2026-05-07 16:19 40.07470 116.59715 129 ft 167 kts 353°
2026-05-07 16:19 40.08698 116.59517 666 ft 175 kts 353°
2026-05-07 16:19 40.09886 116.59352 1610 ft 166 kts 352°
2026-05-07 16:19 40.11075 116.59188 2091 ft 185 kts 353°
2026-05-07 16:20 40.12429 116.58978 2421 ft 210 kts 353°
2026-05-07 16:20 40.13447 116.58818 2621 ft 229 kts 353°
2026-05-07 16:20 40.15628 116.58458 3447 ft 244 kts 352°
2026-05-07 16:20 40.17326 116.58177 4235 ft 248 kts 352°
2026-05-07 16:21 40.19058 116.57897 5049 ft 253 kts 352°
2026-05-07 16:21 40.20819 116.57614 5871 ft 257 kts 352°
2026-05-07 16:21 40.22023 116.57431 6444 ft 259 kts 352°
2026-05-07 16:21 40.24394 116.56940 7538 ft 262 kts 342°
2026-05-07 16:22 40.25515 116.56278 8127 ft 262 kts 327°
2026-05-07 16:22 40.27399 116.54301 9338 ft 263 kts 320°
2026-05-07 16:22 40.28777 116.52696 10159 ft 267 kts 318°
2026-05-07 16:22 40.30176 116.50997 10577 ft 284 kts 315°
2026-05-07 16:23 40.31319 116.48798 10873 ft 305 kts 294°
2026-05-07 16:23 40.31660 116.46973 11066 ft 319 kts 279°
2026-05-07 16:23 40.31745 116.43992 11353 ft 336 kts 273°
2026-05-07 16:23 40.31724 116.40858 11628 ft 351 kts 272°
2026-05-07 16:24 40.31699 116.37627 12053 ft 359 kts 272°
2026-05-07 16:24 40.31682 116.34335 12648 ft 363 kts 272°
2026-05-07 16:24 40.31671 116.31020 13225 ft 365 kts 273°
2026-05-07 16:24 40.31509 116.27662 13767 ft 374 kts 264°
2026-05-07 16:25 40.30701 116.24388 14310 ft 385 kts 247°
2026-05-07 16:25 40.29104 116.21537 14849 ft 397 kts 227°
2026-05-07 16:25 40.26819 116.19426 15390 ft 407 kts 213°
2026-05-07 16:25 40.24305 116.17690 15904 ft 411 kts 211°
2026-05-07 16:26 40.21748 116.15984 16409 ft 414 kts 211°
2026-05-07 16:26 40.19172 116.14256 16924 ft 417 kts 211°
2026-05-07 16:26 40.16581 116.12506 17441 ft 421 kts 211°
2026-05-07 16:26 40.13975 116.10739 17975 ft 424 kts 211°
2026-05-07 16:27 40.11354 116.08955 18456 ft 426 kts 211°
2026-05-07 16:27 40.08711 116.07165 18844 ft 430 kts 212°
2026-05-07 16:27 40.05989 116.05481 19258 ft 437 kts 205°
2026-05-07 16:27 40.03017 116.04454 19611 ft 448 kts 191°
2026-05-07 16:28 39.99875 116.04433 19988 ft 457 kts 175°
2026-05-07 16:28 39.96772 116.05431 20329 ft 465 kts 163°
2026-05-07 16:28 39.93720 116.06890 20658 ft 469 kts 160°
2026-05-07 16:28 39.90659 116.08415 20999 ft 473 kts 160°
2026-05-07 16:29 39.87568 116.09945 21347 ft 477 kts 161°
2026-05-07 16:29 39.84443 116.11479 21667 ft 481 kts 161°
2026-05-07 16:29 39.81341 116.13156 22004 ft 486 kts 154°
2026-05-07 16:29 39.78384 116.15317 22315 ft 490 kts 149°
2026-05-07 16:30 39.75452 116.17610 22626 ft 493 kts 149°
2026-05-07 16:30 39.72501 116.19928 22873 ft 498 kts 149°
2026-05-07 16:30 39.69521 116.22259 23170 ft 502 kts 149°
2026-05-07 16:30 39.66520 116.24599 23475 ft 505 kts 149°
2026-05-07 16:31 39.63496 116.26950 23782 ft 508 kts 149°
2026-05-07 16:31 39.60490 116.29282 24044 ft 510 kts 149°
2026-05-07 16:31 39.57400 116.31676 24322 ft 513 kts 149°
2026-05-07 16:31 39.54328 116.34053 24589 ft 515 kts 150°
2026-05-07 16:32 39.51290 116.36401 24846 ft 517 kts 150°
2026-05-07 16:32 39.48155 116.38696 25064 ft 518 kts 156°
2026-05-07 16:32 39.44767 116.40263 25297 ft 517 kts 167°
2026-05-07 16:32 39.41285 116.41438 25562 ft 518 kts 169°
2026-05-07 16:33 39.37783 116.42567 25816 ft 520 kts 169°
2026-05-07 16:33 39.34269 116.43701 26056 ft 521 kts 169°
2026-05-07 16:33 39.30745 116.44845 26288 ft 523 kts 169°
2026-05-07 16:33 39.27213 116.45995 26536 ft 525 kts 169°
2026-05-07 16:34 39.23669 116.47150 26774 ft 526 kts 169°
2026-05-07 16:34 39.20118 116.48309 27005 ft 527 kts 169°
2026-05-07 16:34 39.16548 116.49473 27221 ft 529 kts 169°
2026-05-07 16:34 39.12972 116.50639 27443 ft 530 kts 169°
2026-05-07 16:35 39.09381 116.51808 27661 ft 532 kts 170°
2026-05-07 16:35 39.05822 116.52966 27863 ft 533 kts 170°
2026-05-07 16:35 39.02209 116.54142 28112 ft 532 kts 170°
2026-05-07 16:35 38.98616 116.55310 28507 ft 529 kts 171°
2026-05-07 16:36 38.95040 116.56470 28828 ft 528 kts 171°
2026-05-07 16:36 38.91477 116.57624 29151 ft 528 kts 171°
2026-05-07 16:36 38.87919 116.58776 29462 ft 527 kts 171°
2026-05-07 16:36 38.84410 116.59910 29789 ft 526 kts 171°
2026-05-07 16:37 38.80847 116.61061 30055 ft 525 kts 172°
2026-05-07 16:37 38.77302 116.62205 30370 ft 523 kts 172°
2026-05-07 16:37 38.73766 116.63345 30637 ft 522 kts 172°
2026-05-07 16:37 38.70278 116.64469 30886 ft 522 kts 172°
2026-05-07 16:38 38.66757 116.65571 31137 ft 519 kts 175°
2026-05-07 16:38 38.63206 116.66186 31383 ft 507 kts 186°
2026-05-07 16:38 38.59707 116.66148 31653 ft 498 kts 192°
2026-05-07 16:38 38.56305 116.65862 31983 ft 492 kts 194°
2026-05-07 16:39 38.52911 116.65453 32314 ft 488 kts 196°
2026-05-07 16:39 38.49533 116.65000 32611 ft 486 kts 196°
2026-05-07 16:39 38.46173 116.64549 32902 ft 485 kts 197°
2026-05-07 16:39 38.42823 116.64115 33205 ft 484 kts 196°
2026-05-07 16:40 38.39462 116.63701 33456 ft 483 kts 197°
2026-05-07 16:40 38.36173 116.63264 33732 ft 479 kts 198°
2026-05-07 16:40 38.32829 116.62844 33997 ft 483 kts 196°
2026-05-07 16:40 38.29414 116.62892 34202 ft 499 kts 186°
2026-05-07 16:41 38.25932 116.63659 34250 ft 512 kts 178°
2026-05-07 16:41 38.19051 116.66047 34256 ft 516 kts 174°
2026-05-07 16:42 38.12143 116.68755 34254 ft 520 kts 175°
2026-05-07 16:42 38.05233 116.71425 34254 ft 522 kts 175°
2026-05-07 16:43 37.98255 116.74093 34256 ft 521 kts 175°
2026-05-07 16:43 37.91303 116.76736 34254 ft 521 kts 175°
2026-05-07 16:44 37.84358 116.79369 34261 ft 521 kts 175°
2026-05-07 16:44 37.77408 116.82000 34259 ft 521 kts 175°
2026-05-07 16:45 37.70457 116.84644 34218 ft 522 kts 175°
2026-05-07 16:45 37.63522 116.87289 34264 ft 520 kts 177°
2026-05-07 16:46 37.56585 116.89878 34263 ft 519 kts 177°
2026-05-07 16:46 37.49663 116.92462 34262 ft 519 kts 177°
2026-05-07 16:47 37.42767 116.95048 34262 ft 514 kts 177°
2026-05-07 16:47 37.35980 116.97594 34266 ft 511 kts 177°
2026-05-07 16:48 37.29161 117.00159 34261 ft 514 kts 175°
2026-05-07 16:48 37.22363 117.03194 34242 ft 520 kts 172°
2026-05-07 16:49 37.15642 117.06441 34266 ft 515 kts 172°
2026-05-07 16:49 37.08973 117.09626 34271 ft 512 kts 172°
2026-05-07 16:50 37.02289 117.12753 34273 ft 512 kts 172°
2026-05-07 16:50 36.95616 117.15779 34273 ft 504 kts 174°
2026-05-07 16:51 36.89026 117.18712 34276 ft 503 kts 172°
2026-05-07 16:51 36.82494 117.21161 34280 ft 478 kts 185°
2026-05-07 16:51 36.79193 117.21510 34284 ft 466 kts 191°
2026-05-07 16:52 36.76001 117.21632 34265 ft 462 kts 193°
2026-05-07 16:52 36.69610 117.21649 34285 ft 456 kts 194°
2026-05-07 16:53 36.63282 117.21529 34290 ft 454 kts 194°
2026-05-07 16:53 36.56958 117.21429 34292 ft 455 kts 194°
2026-05-07 16:54 36.50621 117.21366 34289 ft 456 kts 193°
2026-05-07 16:54 36.44265 117.21356 34289 ft 461 kts 190°
2026-05-07 16:54 36.41038 117.21805 34297 ft 476 kts 181°
2026-05-07 16:55 36.37781 117.22764 34297 ft 483 kts 177°
2026-05-07 16:55 36.31279 117.25087 34284 ft 488 kts 175°
2026-05-07 16:56 36.24764 117.27574 34297 ft 491 kts 174°
2026-05-07 16:56 36.14944 117.31274 34298 ft 491 kts 175°
2026-05-07 16:57 36.08441 117.33685 34300 ft 491 kts 175°
2026-05-07 16:57 36.01878 117.36106 34298 ft 492 kts 175°
2026-05-07 16:58 35.95344 117.38532 34298 ft 493 kts 174°
2026-05-07 16:58 35.88764 117.40998 34296 ft 493 kts 174°
2026-05-07 16:59 35.82230 117.43446 34255 ft 493 kts 174°
2026-05-07 16:59 35.75657 117.45904 34294 ft 491 kts 174°
2026-05-07 17:00 35.69148 117.48326 34304 ft 491 kts 174°
2026-05-07 17:00 35.62606 117.50759 34303 ft 490 kts 174°
2026-05-07 17:01 35.56096 117.53177 34301 ft 489 kts 174°
2026-05-07 17:01 35.49547 117.55603 34304 ft 489 kts 174°
2026-05-07 17:02 35.43054 117.58005 34305 ft 489 kts 174°
2026-05-07 17:02 35.36563 117.60402 34304 ft 489 kts 174°
2026-05-07 17:03 35.30031 117.62801 34305 ft 487 kts 174°
2026-05-07 17:03 35.23572 117.65003 34305 ft 478 kts 174°
2026-05-07 17:04 35.17229 117.67394 34311 ft 477 kts 173°
2026-05-07 17:04 35.10893 117.69812 34311 ft 476 kts 174°
2026-05-07 17:05 35.04597 117.72154 34302 ft 475 kts 174°
2026-05-07 17:05 34.98268 117.74476 34306 ft 474 kts 174°
2026-05-07 17:06 34.91946 117.76784 34305 ft 475 kts 174°
2026-05-07 17:06 34.85614 117.79094 34304 ft 475 kts 174°
2026-05-07 17:07 34.79289 117.81401 34303 ft 475 kts 173°
2026-05-07 17:07 34.72959 117.83684 34300 ft 475 kts 174°
2026-05-07 17:08 34.66624 117.85960 34300 ft 475 kts 174°
2026-05-07 17:08 34.60287 117.88233 34300 ft 475 kts 174°
2026-05-07 17:09 34.53945 117.90506 34299 ft 475 kts 173°
2026-05-07 17:09 34.48665 117.92396 34301 ft 476 kts 173°
2026-05-07 17:10 34.42318 117.94665 34298 ft 476 kts 173°
2026-05-07 17:10 34.35970 117.96932 34301 ft 476 kts 173°
2026-05-07 17:11 34.29618 117.99196 34300 ft 476 kts 173°
2026-05-07 17:11 34.23273 118.01480 34304 ft 476 kts 173°
2026-05-07 17:12 34.16925 118.03796 34301 ft 476 kts 173°
2026-05-07 17:12 34.10578 118.06112 34295 ft 476 kts 173°
2026-05-07 17:13 34.04237 118.08417 34290 ft 477 kts 173°
2026-05-07 17:13 33.97879 118.10726 34294 ft 477 kts 173°
2026-05-07 17:14 33.91556 118.13028 34292 ft 477 kts 173°
2026-05-07 17:14 33.85199 118.15342 34292 ft 477 kts 173°
2026-05-07 17:15 33.82056 118.16721 34257 ft 488 kts 165°
2026-05-07 17:15 33.79032 118.18712 34292 ft 499 kts 157°
2026-05-07 17:15 33.73194 118.23333 34293 ft 505 kts 154°
2026-05-07 17:16 33.67428 118.28185 34289 ft 506 kts 153°
2026-05-07 17:16 33.61668 118.33034 34289 ft 506 kts 153°
2026-05-07 17:17 33.55920 118.37821 34291 ft 505 kts 154°
2026-05-07 17:17 33.50138 118.42605 34290 ft 504 kts 154°
2026-05-07 17:18 33.44383 118.47359 34289 ft 501 kts 154°
2026-05-07 17:18 33.38648 118.52084 34287 ft 500 kts 154°
2026-05-07 17:19 33.32910 118.56804 34285 ft 500 kts 154°
2026-05-07 17:19 33.27174 118.61516 34281 ft 500 kts 154°
2026-05-07 17:20 33.21444 118.66219 34277 ft 499 kts 154°
2026-05-07 17:20 33.15747 118.70935 34282 ft 497 kts 154°
2026-05-07 17:21 33.10070 118.75653 34282 ft 497 kts 154°
2026-05-07 17:21 33.04390 118.80364 34280 ft 497 kts 154°
2026-05-07 17:22 32.98713 118.85062 34278 ft 497 kts 154°
2026-05-07 17:22 32.93028 118.89758 34279 ft 497 kts 154°
2026-05-07 17:23 32.87343 118.94446 34275 ft 497 kts 154°
2026-05-07 17:23 32.81664 118.99137 34276 ft 498 kts 154°
2026-05-07 17:24 32.75985 119.03854 34273 ft 498 kts 154°
2026-05-07 17:24 32.70303 119.08572 34272 ft 498 kts 154°
2026-05-07 17:25 32.64622 119.13279 34260 ft 498 kts 154°
2026-05-07 17:25 32.58984 119.17940 34266 ft 496 kts 154°
2026-05-07 17:26 32.53323 119.22612 34269 ft 495 kts 154°
2026-05-07 17:26 32.47661 119.27276 34266 ft 495 kts 154°
2026-05-07 17:27 32.42002 119.31930 34266 ft 495 kts 154°
2026-05-07 17:27 32.36289 119.36614 34262 ft 504 kts 154°
2026-05-07 17:28 32.30538 119.41329 34257 ft 506 kts 153°
2026-05-07 17:28 32.24768 119.46061 34258 ft 504 kts 153°
2026-05-07 17:29 32.19009 119.50773 34181 ft 503 kts 153°
2026-05-07 17:29 32.16137 119.53119 33608 ft 501 kts 153°
2026-05-07 17:29 32.13278 119.55452 32795 ft 501 kts 153°
2026-05-07 17:30 32.10398 119.57797 32088 ft 501 kts 153°
2026-05-07 17:30 32.07543 119.60123 31478 ft 498 kts 153°
2026-05-07 17:30 32.04697 119.62442 30851 ft 496 kts 153°
2026-05-07 17:30 32.01858 119.64752 30219 ft 494 kts 152°
2026-05-07 17:31 31.99034 119.67049 29553 ft 492 kts 152°
2026-05-07 17:31 31.96231 119.69335 28908 ft 489 kts 151°
2026-05-07 17:31 31.93708 119.72068 28266 ft 499 kts 135°
2026-05-07 17:31 31.91643 119.75353 27690 ft 499 kts 129°
2026-05-07 17:32 31.89700 119.78719 27120 ft 495 kts 128°
2026-05-07 17:32 31.87790 119.82063 26530 ft 492 kts 128°
2026-05-07 17:32 31.85890 119.85383 26107 ft 485 kts 128°
2026-05-07 17:32 31.84007 119.88665 25542 ft 482 kts 128°
2026-05-07 17:33 31.82134 119.91920 25027 ft 478 kts 128°
2026-05-07 17:33 31.80275 119.95145 24519 ft 475 kts 128°
2026-05-07 17:33 31.78433 119.98338 24060 ft 470 kts 128°
2026-05-07 17:33 31.76600 120.01512 23526 ft 467 kts 128°
2026-05-07 17:34 31.74787 120.04649 23075 ft 461 kts 128°
2026-05-07 17:34 31.72994 120.07750 22618 ft 455 kts 129°
2026-05-07 17:34 31.71220 120.10813 22105 ft 451 kts 129°
2026-05-07 17:34 31.69486 120.13805 21676 ft 446 kts 129°
2026-05-07 17:35 31.67727 120.16838 21235 ft 441 kts 129°
2026-05-07 17:35 31.66009 120.19798 20758 ft 437 kts 129°
2026-05-07 17:35 31.64334 120.22685 20338 ft 427 kts 129°
2026-05-07 17:35 31.62657 120.25577 19591 ft 420 kts 129°
2026-05-07 17:36 31.61017 120.28394 18862 ft 415 kts 129°
2026-05-07 17:36 31.59427 120.31176 18132 ft 409 kts 125°
2026-05-07 17:36 31.58235 120.34212 17262 ft 410 kts 113°
2026-05-07 17:36 31.57304 120.37300 16471 ft 404 kts 111°
2026-05-07 17:37 31.56396 120.40394 15710 ft 397 kts 110°
2026-05-07 17:37 31.55509 120.43426 15157 ft 387 kts 110°
2026-05-07 17:37 31.54638 120.46344 14834 ft 374 kts 110°
2026-05-07 17:37 31.53788 120.49204 14503 ft 370 kts 110°
2026-05-07 17:38 31.52946 120.52042 14164 ft 367 kts 109°
2026-05-07 17:38 31.52107 120.54863 13820 ft 364 kts 109°
2026-05-07 17:38 31.51276 120.57651 13472 ft 362 kts 109°
2026-05-07 17:38 31.50446 120.60430 13148 ft 360 kts 109°
2026-05-07 17:39 31.49621 120.63189 12825 ft 357 kts 109°
2026-05-07 17:39 31.48800 120.65928 12505 ft 355 kts 109°
2026-05-07 17:39 31.47984 120.68647 12178 ft 353 kts 109°
2026-05-07 17:39 31.47173 120.71344 11884 ft 349 kts 109°
2026-05-07 17:40 31.46377 120.73992 11637 ft 340 kts 110°
2026-05-07 17:40 31.45599 120.76577 11278 ft 332 kts 110°
2026-05-07 17:40 31.44840 120.79097 10953 ft 324 kts 110°
2026-05-07 17:40 31.44101 120.81549 10665 ft 317 kts 110°
2026-05-07 17:41 31.43369 120.83977 10386 ft 315 kts 110°
2026-05-07 17:41 31.42639 120.86394 10060 ft 314 kts 110°
2026-05-07 17:41 31.41912 120.88799 9669 ft 313 kts 110°
2026-05-07 17:41 31.41188 120.91191 9290 ft 311 kts 109°
2026-05-07 17:42 31.40469 120.93566 8933 ft 308 kts 109°
2026-05-07 17:42 31.39767 120.95881 8613 ft 304 kts 109°
2026-05-07 17:42 31.39062 120.98202 8352 ft 301 kts 109°
2026-05-07 17:42 31.38362 121.00506 8150 ft 300 kts 109°
2026-05-07 17:43 31.37652 121.02837 8014 ft 300 kts 109°
2026-05-07 17:43 31.36962 121.05104 7893 ft 299 kts 109°
2026-05-07 17:43 31.36257 121.07419 7767 ft 298 kts 109°
2026-05-07 17:43 31.35569 121.09674 7653 ft 297 kts 109°
2026-05-07 17:44 31.34870 121.11949 7521 ft 297 kts 109°
2026-05-07 17:44 31.34160 121.14240 7404 ft 296 kts 109°
2026-05-07 17:44 31.33469 121.16462 7278 ft 291 kts 109°
2026-05-07 17:44 31.32777 121.18653 7147 ft 284 kts 111°
2026-05-07 17:45 31.31775 121.20623 7001 ft 283 kts 133°
2026-05-07 17:45 31.30168 121.21940 6631 ft 284 kts 162°
2026-05-07 17:45 31.28266 121.22332 6478 ft 275 kts 178°
2026-05-07 17:45 31.26359 121.22444 6354 ft 275 kts 179°
2026-05-07 17:46 31.24447 121.22530 6231 ft 275 kts 179°
2026-05-07 17:46 31.22532 121.22619 6102 ft 275 kts 179°
2026-05-07 17:46 31.20619 121.22724 5973 ft 276 kts 179°
2026-05-07 17:46 31.18703 121.22810 5840 ft 275 kts 179°
2026-05-07 17:47 31.16809 121.22911 5617 ft 270 kts 178°
2026-05-07 17:47 31.14941 121.23015 5362 ft 267 kts 178°
2026-05-07 17:47 31.13085 121.23110 5056 ft 267 kts 177°
2026-05-07 17:47 31.11223 121.23210 4611 ft 268 kts 177°
2026-05-07 17:48 31.09357 121.23301 4108 ft 269 kts 176°
2026-05-07 17:48 31.07490 121.23392 3681 ft 266 kts 175°
2026-05-07 17:48 31.05681 121.23480 3541 ft 253 kts 175°
2026-05-07 17:48 31.03961 121.23599 3431 ft 243 kts 170°
2026-05-07 17:49 31.02408 121.24200 3074 ft 231 kts 138°
2026-05-07 17:49 31.01481 121.25565 2874 ft 205 kts 103°
2026-05-07 17:49 31.01261 121.27114 2742 ft 186 kts 83°
2026-05-07 17:49 31.01298 121.28570 2552 ft 175 kts 79°
2026-05-07 17:50 31.01368 121.29959 2340 ft 170 kts 79°
2026-05-07 17:50 31.01440 121.31330 2125 ft 170 kts 79°
2026-05-07 17:50 31.01658 121.32658 1929 ft 164 kts 62°
2026-05-07 17:50 31.02332 121.33665 1804 ft 157 kts 33°
2026-05-07 17:51 31.03351 121.34075 1796 ft 158 kts
2026-05-07 17:51 31.04455 121.34057 1778 ft 154 kts
2026-05-07 17:51 31.05472 121.34007 1803 ft 141 kts
2026-05-07 17:51 31.06444 121.33954 1797 ft 139 kts
2026-05-07 17:52 31.07416 121.33907 1797 ft 140 kts
2026-05-07 17:52 31.08389 121.33860 1795 ft 140 kts
2026-05-07 17:52 31.09355 121.33811 1793 ft 141 kts
2026-05-07 17:52 31.10337 121.33758 1707 ft 143 kts
2026-05-07 17:53 31.11337 121.33707 1484 ft 142 kts
2026-05-07 17:53 31.12263 121.33650 1287 ft 124 kts
2026-05-07 17:53 31.13092 121.33606 1113 ft 118 kts
2026-05-07 17:53 31.13930 121.33564 957 ft 123 kts
2026-05-07 17:54 31.14799 121.33515 775 ft 127 kts
2026-05-07 17:54 31.15695 121.33465 620 ft 129 kts
2026-05-07 17:54 31.16607 121.33419 413 ft 132 kts
2026-05-07 17:54 31.17516 121.33358 285 ft 128 kts
2026-05-07 17:55 31.18402 121.33317 60 ft 126 kts
2026-05-07 17:55 31.18971 121.33289 29 ft 119 kts
2026-05-07 17:55 31.20037 121.33246 26 ft 117 kts 359°
2026-05-07 17:55 31.20794 121.33229 23 ft 84 kts 357°
2026-05-07 17:56 31.21159 121.33182 23 ft 23 kts 331°
2026-05-07 17:56 31.21244 121.33142 25 ft 18 kts 339°
2026-05-07 17:56 31.21286 121.33033 28 ft 15 kts 271°
2026-05-07 17:56 31.21279 121.32919 29 ft 12 kts 250°
2026-05-07 17:57 31.21208 121.32896 29 ft 11 kts 177°
2026-05-07 17:57 31.21131 121.32901 26 ft 11 kts 176°
2026-05-07 17:57 31.21051 121.32907 26 ft 12 kts 176°
2026-05-07 17:57 31.20962 121.32909 25 ft 16 kts 178°
2026-05-07 17:58 31.20824 121.32919 26 ft 23 kts 177°
2026-05-07 17:58 31.20649 121.32929 26 ft 25 kts 177°
2026-05-07 17:58 31.20479 121.32941 28 ft 24 kts 177°
2026-05-07 17:58 31.20317 121.32945 31 ft 23 kts 179°
2026-05-07 17:59 31.20162 121.32953 28 ft 22 kts 177°
2026-05-07 17:59 31.20072 121.32958 28 ft 8 kts 179°
2026-05-07 17:59 31.20047 121.32910 28 ft 10 kts 265°
2026-05-07 17:59 31.20062 121.32804 28 ft 14 kts 274°
2026-05-07 18:00 31.20056 121.32730 30 ft 4 kts 244°
2026-05-07 18:00 31.20025 121.32725 28 ft 8 kts 185°
2026-05-07 18:00 31.19982 121.32726 27 ft 2 kts 178°
2026-05-07 18:00 31.19969 121.32727 28 ft 2 kts 175°
2026-05-07 18:01 31.19967 121.32727 28 ft 0 kts 175°